User: anonymous   Login
Location: *
(40.7873°S, 98.7174°E)
Time: 07:34:48
(UTC+00:00)
Language:

USA 215 - Orbit

View from above orbital plane
View from above orbital plane
View from above satellite
View from above satellite

Ground track
Ground track

The orbit data is extracted from the following two-line orbital elements,

1 37162U 10046A   22208.67227616 0.00000080  00000-0  14322-3 0    07
2 37162 123.0043 207.7860 0006249 102.8484 257.1515 13.41442314    05
Epoch (UTC): 27 July 2022 16:08:04
Eccentricity: 0.0006249
inclination: 123.0043°
perigee height: 1099 km
apogee height: 1108 km
right ascension of ascending node: 207.7860°
argument of perigee: 102.8484°
revolutions per day: 13.41442314
mean anomaly at epoch: 257.1515°
orbit number at epoch: 0

The dashed part of the orbit path shows where the satellite is in the earth's shadow,  

DLR